Beauvechain, Belgium

9:21 AM CEST on July 26, 2017 (GMT +0200)
Beauvechain Air Base

Weather History for EBBE - February, 2014

Change the Weather History Date:

Sunday, February 23, 2014

  Actual Average Record
Temperature  
Mean Temperature 44 °F -  
Max Temperature 52 °F 46 °F 53 °F (1997)
Min Temperature 37 °F 38 °F 23 °F (2013)
Degree Days  
Heating Degree Days 20    
Moisture  
Dew Point 39 °F    
Average Humidity 79    
Maximum Humidity 93    
Minimum Humidity 55    
Precipitation  
Precipitation 0.00 in - - ()
Sea Level Pressure  
Sea Level Pressure 30.07 in    
Wind  
Wind Speed 11 mph ()    
Max Wind Speed 21 mph    
Max Gust Speed -    
Visibility 8.6 miles    
Events      
Averages and records for this station are not official NWS values.
T = Trace of Precipitation, MM = Missing Value Source: Averaged Metar Reports

Daily Weather History Graph

Daily Weather History Graph

Search for Another Location

Airport or City:

Trip Planner

Search our weather history database for the weather conditions in past years. The results will help you decide how hot, cold, wet, or windy it might be!

Date:

Astronomy

Feb. 23, 2014 Rise Set
Actual Time 7:37 AM CET 6:11 PM CET
Civil Twilight 7:04 AM CET 6:44 PM CET
Nautical Twilight 6:26 AM CET 7:22 PM CET
Astronomical Twilight 5:48 AM CET 8:01 PM CET
Moon 2:38 AM CET (2/23) 11:40 AM CET (2/23)
Length of Visible Light 11h 40m
Length of Day
10h 33m
Last Quarter, 42% of the Moon is Illuminated
Feb 23
Last Quarter
Mar 1
New
Mar 8
First Quarter
Mar 16
Full
Mar 24
Last Quarter

Hourly Weather History & Observations

Time (CET) Temp. Windchill Dew Point Humidity Pressure Visibility Wind Dir Wind Speed Gust Speed Precip Events Conditions
12:00 AM 38 °F - 36 °F 90% 30.10 in 12 mi South 8.9 mph - -  
12:25 AM 39.2 °F 32.5 °F 35.6 °F 87% 30.06 in 6.2 mi South 10.4 mph - N/A   Unknown
1:00 AM 38 °F - 36 °F 89% 30.10 in 11 mi South 8.9 mph - -  
1:25 AM 37.4 °F 30.8 °F 35.6 °F 93% 30.06 in 6.2 mi South 9.2 mph - N/A   Unknown
2:00 AM 38 °F - 36 °F 90% 30.11 in 13 mi South 11.2 mph - -   Partly Cloudy
2:25 AM 39.2 °F 32.5 °F 35.6 °F 87% 30.06 in 6.2 mi South 10.4 mph - N/A   Partly Cloudy
3:00 AM 38 °F - 36 °F 91% 30.10 in 9 mi South 11.2 mph - -  
3:25 AM 39.2 °F 32.0 °F 37.4 °F 93% 30.06 in 6.2 mi South 11.5 mph - N/A   Partly Cloudy
4:00 AM 38 °F - 36 °F 91% 30.09 in 11 mi South 11.2 mph - -   Scattered Clouds
4:25 AM 37.4 °F 29.8 °F 35.6 °F 93% 30.06 in 6.2 mi South 11.5 mph - N/A   Unknown
5:00 AM 39 °F - 36 °F 86% 30.09 in 19 mi South 11.2 mph - -  
5:25 AM 39.2 °F 31.6 °F 35.6 °F 87% 30.06 in 6.2 mi South 12.7 mph - N/A   Unknown
6:00 AM 39 °F - 36 °F 85% 30.09 in 14 mi South 13.4 mph - -  
6:25 AM 39.2 °F 31.2 °F 37.4 °F 93% 30.06 in 6.2 mi South 13.8 mph - N/A   Scattered Clouds
7:00 AM 40 °F - 38 °F 89% 30.09 in 10 mi South 13.4 mph - -   Mostly Cloudy
7:25 AM 41.0 °F 34.3 °F 37.4 °F 87% 30.06 in 6.2 mi South 11.5 mph - N/A   Mostly Cloudy
8:00 AM 41 °F - 38 °F 87% 30.09 in 18 mi South 11.2 mph - -   Scattered Clouds
8:07 AM 41.0 °F 33.9 °F 39.2 °F 93% 30.06 in 6.2 mi South 12.7 mph - N/A   Partly Cloudy
8:12 AM 41.0 °F 33.5 °F 39.2 °F 93% 30.06 in 6.2 mi South 13.8 mph - N/A   Scattered Clouds
8:25 AM 42.8 °F 35.8 °F 39.2 °F 87% 30.06 in 6.2 mi SSW 13.8 mph - N/A   Scattered Clouds
8:48 AM 42.8 °F 36.2 °F 39.2 °F 87% 30.09 in 6.2 mi SSW 12.7 mph - N/A   Mostly Cloudy
9:00 AM 42 °F - 40 °F 88% 30.12 in 22 mi SSW 13.4 mph - -   Mostly Cloudy
9:25 AM 42.8 °F 35.1 °F 39.2 °F 87% 30.09 in 6.2 mi SSW 16.1 mph - N/A   Mostly Cloudy
10:00 AM 44 °F - 40 °F 80% 30.11 in 22 mi South 15.7 mph - -   Partly Cloudy
10:14 AM 44.6 °F 37.2 °F 39.2 °F 81% 30.09 in 6.2 mi South 17.3 mph - N/A   Mostly Cloudy
10:25 AM 44.6 °F 37.4 °F 41.0 °F 87% 30.09 in 6.2 mi South 16.1 mph - N/A   Overcast
11:00 AM 45 °F - 40 °F 78% 30.11 in 17 mi South 15.7 mph - -   Scattered Clouds
11:25 AM 46.4 °F 39.8 °F 39.2 °F 76% 30.09 in 6.2 mi South 16.1 mph - N/A   Partly Cloudy
12:00 PM 48 °F - 40 °F 66% 30.10 in 25 mi South 15.7 mph - -   Partly Cloudy
12:25 PM 50.0 °F - 41.0 °F 71% 30.06 in 6.2 mi SSW 20.7 mph - N/A   Partly Cloudy
1:00 PM 51 °F - 41 °F 58% 30.08 in 19 mi SSW 20.1 mph - -   Scattered Clouds
1:25 PM 51.8 °F - 41.0 °F 67% 30.06 in 6.2 mi SSW 18.4 mph - N/A   Partly Cloudy
2:00 PM 52 °F - 41 °F 56% 30.07 in 17 mi SSW 17.9 mph - -  
2:25 PM 51.8 °F - 39.2 °F 62% 30.06 in 6.2 mi SSW 17.3 mph - N/A   Unknown
3:00 PM 52 °F - 41 °F 56% 30.06 in 25 mi SSW 15.7 mph - -  
3:25 PM 51.8 °F - 41.0 °F 67% 30.04 in 6.2 mi South 13.8 mph - N/A   Unknown
4:00 PM 52 °F - 40 °F 55% 30.07 in 25 mi South 13.4 mph - -  
4:25 PM 51.8 °F - 39.2 °F 62% 30.04 in 6.2 mi South 13.8 mph - N/A   Partly Cloudy
5:00 PM 51 °F - 40 °F 57% 30.06 in 22 mi South 11.2 mph - -  
5:25 PM 50.0 °F - 41.0 °F 71% 30.04 in 6.2 mi South 11.5 mph - N/A   Unknown
6:00 PM 49 °F - 40 °F 62% 30.06 in 31 mi South 11.2 mph - -  
6:25 PM 48.2 °F - 39.2 °F 71% 30.06 in 6.2 mi South 10.4 mph - N/A   Unknown
7:00 PM 47 °F - 40 °F 68% 30.08 in 25 mi South 6.7 mph - -  
7:25 PM 46.4 °F 42.4 °F 39.2 °F 76% 30.06 in 6.2 mi South 8.1 mph - N/A   Unknown
8:00 PM 46 °F - 40 °F 71% 30.09 in 25 mi South 8.9 mph - -  
8:25 PM 46.4 °F 41.5 °F 39.2 °F 76% 30.04 in 6.2 mi South 10.4 mph - N/A   Unknown
9:00 PM 46 °F - 39 °F 69% 30.06 in 31 mi South 8.9 mph - -  
9:25 PM 46.4 °F 41.9 °F 39.2 °F 76% 30.04 in 6.2 mi South 9.2 mph - N/A   Unknown
10:00 PM 45 °F - 40 °F 75% 30.06 in 28 mi SSE 6.7 mph - -  
10:25 PM 44.6 °F 40.7 °F 39.2 °F 81% 30.04 in 6.2 mi SSE 6.9 mph - N/A   Unknown
11:00 PM 44 °F - 39 °F 76% 30.05 in 25 mi SSE 4.5 mph - -   Mostly Cloudy
11:25 PM 42.8 °F 39.3 °F 39.2 °F 87% 30.01 in 6.2 mi SE 5.8 mph - N/A   Scattered Clouds